Retour au catalogue

OPS 2112

ActifMilitaireGEO
NORAD 8916·PAYLOAD·🇺🇸 United States

Lancé Jun 26, 1976 depuis Cape Canaveral Space Force Station

Loading…

TLE

FraisSource: Space-Track

Époque: Sep 14, 2026, 14:12 UTC

1 08916U 76059A   26257.59234775 -.00000047  00000-0  00000-0 0  9997
2 08916   3.1227 267.2783 0004761 263.2132 123.1974  0.99469433 26397

Suivez OPS 2112 en temps réel avec AllMySat

Download on the App Store